SCP
0 0 0 0 0 0 0 0 0 0 0 0 0 0 0 0 0 0 0 0 0 0 0 0 0 0 0 0 0 0 0 0 0 0 0 0 0 0 0 0 0 0 0 0
0 0 0 0 0 0 0 0 0 0 0 0 0 0 0 0 0 0 0 0 0 0 0 0 0 0 0 0 0 0 0 0 0 0 0 0 0 0 0 0 0 0 0 0
0 0 0 0 0 0 0 0 0 0 0 0 0 0 0 0 0 0 0 0 0 0 0 0 0 0 0 0 0 0 0 0 0 0 0 0 0 0 0 0 0 0 0 0
0 0 0 0 0 0 0 0 0 0 0 0 0 0 0 0 0 0 0 0 0 0 0 0 0 0 0 0 0 0 0 0 0 0 0 0 0 0 0 0 0 0 0 0
0 0 0 0 0 0 0 0 0 0 0 0 0 0 0 0 0 0 0 0 0 0 0 0 0 0 0 0 0 0 0 0 0 0 0 0 0 0 0 0 0 0 0 0
0 0 0 0 0 0 0 0 0 0 0 0 0 0 0 0 0 0 0 0 0 0 0 0 0 0 0 0 0 0 0 0 0 0 0 0 0 0 0 0 0 0 0 0
0 0 0 0 0 0 0 0 0 0 0 0 0 0 0 0 0 0 0 0 0 0 0 0 0 0 0 0 0 0 0 0 0 0 0 0 0 0 0 0 0 0 0 0
0 0 0 0 0 0 0 0 0 0 0 0 0 0 0 0 0 0 0 0 0 0 0 0 0 0 0 0 0 0 0 0 0 0 0 0 0 0 0 0 0 0 0 0
0 0 0 0 0 0 0 0 0 0 0 0 0 0 0 0 0 0 0 0 0 0 0 0 0 0 0 0 0 0 0 0 0 0 0 0 0 0 0 0 0 0 0 0
0 0 0 0 0 0 0 0 0 0 0 0 0 0 0 0 0 0 0 0 0 0 0 0 0 0 0 0 0 0 0 0 0 0 0 0 0 0 0 0 0 0 0 0
0 0 0 0 0 0 0 0 0 0 0 0 0 0 0 0 0 0 0 0 0 0 0 -0 -0 -0 0 0 0 0 0 0 0 0 0 0 0 0 0 0 0 0 0 0
0 0 0 0 0 0 0 0 0 0 0 0 0 0 0 0 0 0 0 0 0 0 0 0 0 0 0 0 0 0 0 0 0 0 0 0 0 0 0 0 0 0 0 0
0 0 0 0 0 0 0 0 0 0 0 0 0 0 0 0 0 0 0 0 0 0 0 0 0 0 0 0 0 0 0 0 0 0 0 0 0 0 0 0 0 0 0 0
0 0 0 0 0 0 0 0 0 0 0 0 0 0 0 0 0 0 0 0 0 0 0 0 0 0 0 0 0 0 0 0 0 0 0 0 0 0 0 0 0 0 0 0
0 0 0 0 0 0 0 0 0 0 0 0 0 0 0 0 0 0 0 0 0 0 0 0 0 0 0 0 0 0 0 0 0 0 0 0 0 0 0 0 0 0 0 0
0 0 0 0 0 0 0 0 0 0 0 0 0 0 0 0 0 0 0 0 0 0 0 0 0 0 0 0 0 0 0 0 0 0 0 0 0 0 0 0 0 0 0 0
0 0 0 0 0 0 0 0 0 0 0 0 0 0 0 0 0 0 0 0 0 0 0 0 0 0 0 0 0 0 0 0 0 0 0 0 0 0 0 0 0 0 0 0
0 0 0 0 0 0 0 0 0 0 0 0 0 0 0 0 0 0 0 0 0 0 0 0 0 0 0 0 0 0 0 0 0 0 0 0 0 0 0 0 0 0 0 0
0 0 0 0 0 0 0 0 0 0 0 0 0 0 0 0 0 0 0 0 0 0 0 0 0 0 0 0 0 0 0 0 0 0 0 0 0 0 0 0 0 0 0 0
0 0 0 0 0 0 0 0 0 0 0 0 0 0 0 0 0 0 0 0 0 0 0 0 0 0 0 0 0 0 0 0 0 0 0 0 0 0 0 0 0 0 0 0
0 0 0 0 0 0 0 0 0 0 0 0 0 0 0 0 0 0 0 0 0 0 0 0 0 0 0 0 0 0 0 0 0 0 0 0 0 0 0 0 0 0 0 0
0 0 0 0 0 0 0 0 0 0 0 0 0 0 0 0 0 0 0 0 0 0 0 0 0 0 0 0 0 0 0 0 0 0 0 0 0 0 0 0 0 0 0 0
0 0 0 0 0 0 0 0 0 0 0 0 0 0 0 0 0 0 0 0 0 0 0 0 0 0 0 0 0 0 0 0 0 0 0 0 0 0 0 0 0 0 0 0
0 0 0 0 0 0 0 0 0 0 0 0 0 0 0 0 0 0 0 0 0 0 0 0 0 0 0 0 0 0 0 0 0 0 0 0 0 0 0 0 0 0 0 0
0 0 0 0 0 0 0 0 0 0 0 0 0 0 0 0 0 0 0 0 0 0 0 0 0 0 0 0 0 0 0 0 0 0 0 0 0 0 0 0 0 0 0 0
0 0 0 0 0 0 0 0 0 0 0 0 0 0 0 0 0 0 0 0 0 0 0 0 0 0 0 0 0 0 0 0 0 0 0 0 0 0 0 0 0 0 0 0
0 0 0 0 0 0 0 0 0 0 0 0 0 0 0 0 0 0 0 0 0 0 0 0 0 0 0 0 0 0 0 0 0 0 0 0 0 0 0 0 0 0 0 0
Wind_Speed
9 11 9 11 12 12 15 16 16 19 24 27 22 18 15 12 11 10 9 7 4 3 4 5 6 7 9 10 11 11 12 12 12 12 13 14 13 12 12 11 11 9 8 7
8 12 13 16 15 15 15 16 18 21 24 17 15 13 11 10 9 9 6 3 2 5 6 7 8 9 10 10 9 10 11 12 13 14 14 14 13 13 12 11 9 8 7 6
4 6 8 9 7 7 7 9 11 13 13 15 15 12 9 9 8 6 4 1 6 7 7 7 8 9 10 9 10 11 12 13 13 14 15 14 14 13 11 9 8 7 5 4
4 6 4 2 5 4 6 10 9 10 12 12 10 4 6 9 8 5 2 5 7 8 8 9 9 9 10 10 11 12 12 13 13 14 14 13 12 11 9 7 6 5 4 3
3 5 8 4 2 2 4 6 3 6 10 11 9 2 6 12 11 9 8 9 9 9 10 10 10 10 12 12 12 13 13 13 13 13 14 13 11 9 7 6 5 4 3 2
3 4 5 1 2 2 2 4 1 4 7 8 8 3 5 9 10 10 11 10 10 11 11 11 11 11 13 13 13 13 13 13 12 12 12 11 10 8 6 5 4 3 2 1
6 5 7 3 1 1 3 4 4 3 4 4 4 3 4 7 9 10 10 11 11 11 11 10 11 12 13 13 13 12 12 13 12 11 11 10 8 6 5 4 3 2 1 1
5 6 7 1 1 2 3 3 3 2 2 4 6 6 7 8 9 9 10 11 11 11 11 10 10 12 14 13 12 12 13 13 12 10 9 8 7 5 4 3 3 2 2 2
6 7 4 1 0 1 3 3 3 2 3 6 7 7 8 8 8 9 10 10 10 11 13 11 10 10 14 12 11 12 13 12 11 10 8 6 6 5 3 3 3 3 3 3
4 6 4 1 3 4 4 3 3 2 4 6 8 8 8 8 8 9 9 9 10 11 13 12 10 10 11 11 10 12 12 10 8 8 6 5 4 4 3 4 4 4 3 3
5 6 2 3 3 3 4 4 4 5 6 8 10 9 9 8 8 8 8 8 9 11 13 13 11 11 10 9 11 12 10 8 7 6 5 5 4 3 4 4 3 2 2 2
3 1 2 2 3 4 4 5 5 7 8 8 8 10 10 9 8 8 9 10 10 11 12 12 11 10 9 8 9 10 8 6 5 4 4 4 3 3 3 2 2 3 3 4
1 2 3 4 4 5 5 6 7 7 8 9 9 9 10 9 8 9 10 10 11 11 12 11 11 10 8 8 9 9 8 6 4 4 4 4 3 3 3 3 5 5 6 8
2 2 2 4 5 6 7 8 9 9 9 8 9 9 10 10 10 10 10 10 10 11 12 11 11 10 7 8 9 9 7 7 6 4 4 3 3 3 2 2 3 4 6 10
2 2 3 7 8 7 7 8 9 9 9 9 8 9 10 11 11 10 9 10 11 12 11 11 11 8 7 7 8 8 6 4 4 4 3 3 3 2 2 3 3 3 3 5
3 4 6 7 8 8 7 8 9 10 9 9 9 9 10 10 11 10 9 8 11 11 9 9 9 6 6 7 8 6 5 8 6 3 3 3 3 3 3 3 3 3 4 4
3 3 5 6 8 8 8 7 9 10 10 10 11 11 11 11 11 10 10 9 10 10 8 8 7 6 6 7 6 4 4 4 6 4 3 3 2 2 3 3 3 3 4 7
4 4 6 8 9 9 9 9 9 10 11 12 12 11 11 11 12 11 10 10 11 10 8 7 7 7 7 6 5 4 3 3 3 2 2 2 2 2 2 3 4 4 4 6
3 2 4 7 8 9 9 9 10 11 12 12 12 11 10 10 11 10 9 9 10 9 5 6 11 8 6 6 6 4 3 3 2 2 2 4 3 3 3 3 4 4 5 6
2 0 3 6 8 9 10 10 11 11 10 11 12 12 11 10 9 9 9 7 5 5 6 7 7 6 5 4 5 3 3 3 2 2 2 2 2 3 3 4 4 5 5 5
2 2 4 6 7 8 9 11 12 12 11 11 13 13 12 10 9 9 9 8 5 7 7 10 6 4 4 3 4 3 2 2 2 2 2 2 3 3 3 4 5 6 6 6
3 2 4 5 7 7 7 8 9 11 12 11 11 12 12 11 9 8 6 6 7 10 6 4 4 5 5 4 3 2 2 2 2 2 2 2 3 3 4 4 4 5 5 6
3 3 3 5 6 7 7 7 8 9 10 11 13 13 12 10 8 8 7 5 6 10 6 4 7 7 6 3 2 1 1 1 2 2 2 3 3 3 4 5 5 5 5 6
3 3 3 4 6 7 7 7 7 7 8 8 8 9 11 9 6 4 6 13 13 11 6 7 9 7 5 2 1 1 1 1 2 2 3 3 3 3 4 4 5 5 6 7
2 3 3 5 5 5 6 8 9 9 9 8 8 7 5 5 6 8 7 8 13 11 6 7 8 5 3 1 0 1 1 2 3 3 3 3 4 4 4 5 5 5 6 6
1 1 2 2 3 5 6 6 7 7 8 9 7 6 6 6 9 8 7 8 9 10 6 4 3 3 1 0 1 2 2 3 4 3 3 4 4 5 5 5 6 6 6 7
1 2 2 3 4 4 5 5 7 8 8 10 9 7 7 8 8 8 8 7 6 5 4 3 2 1 1 1 2 2 2 3 3 3 4 4 4 4 5 6 6 6 6 7
Wind_Direction
267 279 271 254 249 240 236 242 255 269 277 286 295 301 303 302 299 292 277 269 236 167 121 114 104 94 96 99 105 114 120 125 127 125 122 118 116 113 109 106 104 101 101 98
265 259 257 259 254 250 250 251 256 270 278 285 299 304 312 315 309 302 291 275 150 120 113 111 107 104 103 104 109 116 122 123 122 120 117 113 111 108 104 101 99 99 102 105
273 291 291 266 242 231 243 256 264 274 287 307 309 319 334 332 326 317 317 24 111 109 106 103 104 108 109 111 112 116 119 119 119 117 114 110 109 106 104 102 102 104 107 113
290 307 266 222 149 197 255 269 266 279 297 309 313 335 17 3 349 347 21 88 96 96 94 95 99 103 105 108 112 114 114 114 113 111 109 107 106 103 102 104 106 108 106 98
273 284 278 267 170 211 265 278 252 289 308 321 319 297 46 21 24 37 59 78 85 90 95 97 100 106 108 108 109 110 111 111 110 110 108 106 104 102 103 104 100 100 98 85
253 281 274 346 116 156 224 265 202 300 318 332 341 352 17 23 43 54 63 74 83 89 93 96 99 105 109 109 109 108 109 108 106 106 106 104 103 100 96 99 103 103 92 48
232 254 272 304 341 278 282 304 336 338 335 353 40 56 58 59 66 72 76 82 89 94 94 97 102 106 107 106 107 109 108 104 100 98 99 100 97 94 93 89 86 80 62 354
200 225 253 296 332 301 287 320 342 5 35 86 100 93 84 80 82 88 91 94 98 101 100 98 101 108 108 108 109 107 103 99 95 92 93 93 92 86 83 76 58 42 26 15
205 229 263 325 275 10 10 336 2 26 96 119 115 105 97 92 89 91 96 101 104 108 107 105 106 112 111 110 111 107 101 97 95 91 87 88 88 79 65 59 53 36 23 14
261 267 279 25 69 55 44 30 27 61 113 122 118 114 106 99 95 95 96 100 104 105 104 102 101 102 105 107 106 103 99 96 94 93 88 80 77 66 56 57 49 33 21 8
252 269 260 90 68 69 70 70 73 81 96 113 119 117 113 108 103 101 100 97 99 103 103 101 100 97 96 100 102 99 95 91 87 85 88 81 76 73 70 77 79 45 8 356
242 16 41 86 85 92 98 95 98 101 98 101 112 117 114 108 104 103 100 100 100 100 101 100 97 92 87 90 97 99 95 87 82 79 72 67 63 58 73 74 35 357 337 332
62 72 87 110 93 97 104 103 102 103 107 109 108 112 112 109 105 104 104 105 106 104 102 99 93 85 78 79 84 88 92 89 81 74 68 59 51 45 20 355 346 336 336 334
86 112 157 145 121 108 107 105 102 98 98 102 108 110 111 110 107 105 105 106 106 102 98 95 89 80 74 80 84 84 81 77 78 71 64 57 49 36 23 5 345 339 345 344
46 47 106 111 112 112 115 117 114 111 111 108 109 112 114 114 111 108 106 107 103 98 95 93 88 79 72 80 83 79 75 69 69 69 62 53 39 25 12 359 344 332 332 340
78 85 112 128 137 139 142 141 133 130 128 124 119 114 111 110 108 104 100 103 106 101 97 93 88 80 77 82 85 80 74 72 68 62 56 41 27 19 9 354 341 337 331 321
149 167 168 165 165 164 161 154 142 138 133 128 125 122 119 114 107 100 93 90 94 94 93 95 91 81 74 76 83 88 87 72 61 59 51 33 18 11 356 344 334 327 318 320
238 217 188 179 174 167 156 145 141 138 135 131 129 128 126 123 119 114 110 105 97 87 80 87 90 82 72 68 73 77 81 77 66 60 40 25 2 345 340 335 326 321 316 321
268 216 183 173 165 157 151 146 141 135 135 137 136 130 123 120 121 120 117 113 111 107 102 104 104 89 79 72 76 71 73 68 58 49 27 359 2 353 340 326 317 313 315 319
336 134 152 149 145 145 145 141 138 139 142 139 132 127 124 125 126 122 112 101 103 121 126 116 102 95 88 76 77 72 67 59 45 29 13 357 342 331 323 320 318 313 313 314
16 89 122 131 133 134 139 143 146 147 144 141 139 137 134 129 125 122 118 110 106 117 120 119 106 101 95 94 81 73 61 44 29 13 355 340 328 320 317 316 317 317 315 314
26 78 108 120 126 128 133 139 143 144 141 138 134 133 133 131 125 112 103 123 134 133 120 110 107 115 117 101 80 74 55 28 8 350 337 327 317 310 306 305 302 303 305 304
34 75 102 120 128 128 126 131 139 143 142 142 144 145 142 138 136 133 126 130 135 135 122 118 129 128 117 96 85 69 35 1 342 330 315 302 294 291 292 296 295 298 300 301
38 73 96 109 118 128 132 129 123 121 122 124 131 136 137 131 115 103 126 142 143 130 120 134 134 128 115 95 85 48 348 326 314 303 296 293 293 293 292 292 294 295 296 298
63 87 108 126 136 135 129 123 118 120 120 119 117 114 114 120 128 130 129 136 139 127 121 135 135 126 108 94 72 326 304 287 278 284 287 296 295 293 289 288 289 293 295 295
104 140 149 152 137 134 140 141 142 142 138 133 123 112 110 112 118 122 122 124 130 130 125 118 121 123 111 103 298 294 293 301 313 310 295 291 288 288 288 290 292 291 291 292
149 140 129 119 128 145 153 155 155 155 153 147 137 131 128 126 125 124 124 122 122 122 123 123 123 125 148 274 288 292 293 291 289 286 286 284 283 283 285 288 288 290 291 291